Location: ?????
(42.2640°N, 43.4211°E)
Time: 15:15:17
(UTC+00:00)

Timation 1 Rocket - Pass Details

Date: 07 August 2020
Orbit: 898 x 909 km, 70.0° (Epoch: 19 September)

Event Time Altitude Azimuth Distance (km) Brightness Sun altitude
Exits shadow 00:39:49 20° 223° (SW) 1,931 5.4 -14.4°
Maximum altitude 00:43:54 62° 299° (WNW) 1,005 4.5 -13.8°
Drops below altitude 10° 00:49:49 10° 20° (NNE) 2,581 7.6 -12.9°
Sets 00:52:21 0° 24° (NNE) 3,526 8.6 -12.6°
